Regional Weather Roundup
Issued by NWS

Home | Current Version | Previous Version | Graphics & Text | Print | Product List | Glossary On
Versions: 1 2 3 4 5 6 7 8 9 10 11 12 13 14 15 16 17 18 19 20 21 22 23 24 25 26 27 28 29 30 31 32 33 34 35 36 37 38 39 40 41 42 43 44 45 46 47 48 49 50
000
ASUS43 KOAX 201710
RWRNE

WEATHER ROUNDUP FOR NEBRASKA
NATIONAL WEATHER SERVICE OMAHA NE
1200 PM CDT THU JUL 20 2017

NOTES: SATELLITE DATA IS BEING USED TO AUGMENT CLOUD COVER ABOVE
       12000 FEET.
       "FAIR" INDICATES FEW OR NO CLOUDS BELOW 12,000 FEET WITH NO
       SIGNIFICANT WEATHER AND/OR OBSTRUCTIONS TO VISIBILITY.


NEZ001>004-019>022-054>056-201800-
NEBRASKA PANHANDLE

CITY           SKY/WX    TMP DP  RH WIND       PRES   REMARKS
SCOTTSBLUFF    CLOUDY    80  62  54 SW3       30.15F
ALLIANCE       MOSUNNY   75  64  68 N3        30.15R
CHADRON        SUNNY     84  60  44 SW8       30.09F
GORDON         FAIR      81  63  53 CALM      30.13S
KIMBALL        SUNNY     82  58  43 SE8       30.21S
SIDNEY         SUNNY     86  58  38 E9        30.16F
$$

NEZ057>060-069>072-079>082-201800-
SOUTHWEST NEBRASKA

CITY           SKY/WX    TMP DP  RH WIND       PRES   REMARKS
NORTH PLATTE   LGT RAIN  78  64  61 NE14      30.04S
IMPERIAL       SUNNY     89  58  34 E9        30.05R
LEXINGTON      CLOUDY    84  68  58 E3        30.04R
MCCOOK         SUNNY     89  63  41 VRB5      30.01S HX  90
OGALLALA       CLOUDY    86  61  42 NE14G20   30.09F
$$

NEZ005>010-023>029-035>040-094-201800-
NORTH CENTRAL NEBRASKA

CITY           SKY/WX    TMP DP  RH WIND       PRES   REMARKS
VALENTINE      SUNNY     88  68  51 CALM      30.07  HX  91
AINSWORTH      PTSUNNY   85  66  53 E5        30.08R
BROKEN BOW     CLOUDY    83  67  58 E12       30.07R
O`NEILL        CLOUDY    78  73  83 CALM      30.06S
ORD            CLOUDY    83  66  56 E13G18    30.02F
THEDFORD       CLOUDY    83  65  54 E12       30.11S
$$

NEZ041-046>049-061>064-073>077-083>087-201800-
SOUTH CENTRAL NEBRASKA

CITY           SKY/WX    TMP DP  RH WIND       PRES   REMARKS
GRAND ISLAND   CLOUDY    82  71  69 E8        30.02S
AURORA         CLOUDY    85  70  61 E6        30.02S
HASTINGS       CLOUDY    86  69  56 CALM      30.03S HX  90
HEBRON         CLOUDY    89  71  55 SW3       30.00S HX  94
HOLDREGE       PTSUNNY   84  65  52 SE3       30.02S
KEARNEY        PTSUNNY   84  69  60 SE7       30.02F
YORK           PTSUNNY   84  73  70 CALM      30.01S HX  91
$$

NEZ011>018-030>034-042>045-201800-
NORTHEAST NEBRASKA

CITY           SKY/WX    TMP DP  RH WIND       PRES   REMARKS
NORFOLK        CLOUDY    91  71  51 MISG      30.01R HX  97
ALBION         CLOUDY    91  69  48 E7        30.03R HX  95
BLAIR          MOSUNNY   89  75  63 E3        29.98  HX  99
COLUMBUS       PTSUNNY   90  72  55 E8        30.00  HX  97
FREMONT        SUNNY     92  71  49 E6        29.98F HX  99
TEKAMAH        SUNNY     92  76  59 E6        29.96S HX 104
WAYNE          PTSUNNY   87  81  81 N6        30.00S HX 105
$$

NEZ050>053-065>068-078-088>093-201800-
SOUTHEAST NEBRASKA

CITY           SKY/WX    TMP DP  RH WIND       PRES   REMARKS
LINCOLN        MOSUNNY   89  72  56 SW7       29.99S HX  96
OMAHA EPPLEY   MOSUNNY   94  72  48 N6        29.97S HX 102
BEATRICE       SUNNY     91  72  52 CALM      30.00S HX  98
FALLS CITY     SUNNY     92  73  53 W8        29.99S HX 100
NEBRASKA CITY  SUNNY     88  76  69 SW7       30.00S HX  99
PLATTSMOUTH    MOSUNNY   87  72  60 SW8       29.99S HX  93
$$

NEZ044-045-051>053-067-201800-
OMAHA AREA

CITY           SKY/WX    TMP DP  RH WIND       PRES   REMARKS
OMAHA EPPLEY   MOSUNNY   94  72  48 N6        29.97S HX 102
BLAIR          MOSUNNY   89  75  63 E3        29.98  HX  99
FREMONT        SUNNY     92  71  49 E6        29.98F HX  99
MILLARD        MOSUNNY   92  74  55 CALM      29.98R HX 102
OFFUTT AFB     MOSUNNY   89  73  58 SW3       29.97S HX  97
PLATTSMOUTH    MOSUNNY   87  72  60 SW8       29.99S HX  93
WAHOO          FAIR      90  73  56 E3        29.98S HX  98
$$




USA.gov is the U.S. government's official web portal to all federal, state and local government web resources and services.